Погода в Борисово

Россия / Кемеровская область (Кузбасс)     54°48′33″N   86°33′54″E
темп.,
°C
ветер,
м/с
пор.,
м/с
влажн.,
%
обл.,
%
осадки,
мм/ч
давл.,
гПа
погр.,
м
19 сентября, вс
вс1901:00+6зсз11815 0.0 101110
04:00+5ююз228498 0.0 101219
07:00+6ю3682100 0.0 1011169
10:00+10ююз5862100 0.0 1010937
13:00+13ююз684799 0.0 10081549
16:00+14юз4847100 0.0 10061563
19:00+12юв4856100 0.0 1004172
22:00+13ююз7144799 0.0 1003589
20 сентября, пн
пн2001:00+8зюз51082100 0.1 1006573
04:00+6з51083100 0.1 1007482
07:00+5юз4985100 0.2 1010299
10:00+7юз7106893 0.1 10111110
13:00+9зюз10144799 0.4 10122148
16:00+8юз81259100 0.2 10131703
19:00+7юз51064100 0.5 10131224
22:00+5юз4769100 0.1 1012750
21 сентября, вт
вт2101:00+3юз5997100 1.3 1012776
04:00+3юз51097100 0.9 1012510
07:00+3юз5990100 1.4 1013890
10:00+2зюз6991100 0.9 1014756
13:00+4зюз7973100 1.3 10141168
16:00+3зюз71196100 0.9 1015776
19:00+3зюз51097100 1.5 1017656
22:00+3з5997100 0.5 1018674
22 сентября, ср
ср2201:00+2зюз4891100 0.6 1019553
04:00+2юз3788100 0.3 1019289
07:00+1юз4897100 0.4 1021342
10:00+2юз5991100 0.1 1021715
13:00+4зюз4675100 0.5 10211110
16:00+5зюз566393 0.3 10211316
19:00+3юз237599 0.4 102142
22:00+2ююз2385100 0.0 102267
23 сентября, чт
чт2301:00+2ююз2488100 0.1 1021119
04:00+1ю3599100 0.1 1020186
07:00+1ююз2499100 0.1 1021169
10:00+2ююз2399100 0.8 1021171
13:00+2юз2399100 1.4 1021182
16:00+3зсз1195100 0.6 1022290
19:00+2ссв1198100 1.1 1023193
22:00+2ссв1190100 0.0 1024271